Regional Weather Roundup
Issued by NWS

Home | Current Version | Previous Version | Graphics & Text | Print | Product List | Glossary On
Versions: 1 2 3 4 5 6 7 8 9 10 11 12 13 14 15 16 17 18 19 20 21 22 23 24 25 26 27 28 29 30 31 32 33 34 35 36 37 38 39 40 41 42 43 44 45 46 47 48 49 50
000
ASUS43 KLMK 151710
RWRKY
KENTUCKY REGIONAL WEATHER ROUNDUP
NATIONAL WEATHER SERVICE LOUISVILLE KY
100 PM EDT MON SEP 15 2014

NOTE "FAIR" INDICATES FEW OR NO CLOUDS BELOW 12,000 FEET
WITH NO SIGNIFICANT WEATHER AND/OR OBSTRUCTIONS TO VISIBILITY.

KYZ001>023-026-027-061>063-070>075-151800-
WESTERN AND SOUTH CENTRAL KENTUCKY

CITY           SKY/WX    TMP DP  RH WIND       PRES   REMARKS
PADUCAH        CLOUDY    71  58  63 SW6       30.14F
HENDERSON      CLOUDY    73  54  49 S6        30.14F
OWENSBORO      CLOUDY    75  56  51 W6        30.16S
HOPKINSVILLE   CLOUDY    71  61  71 SW6       30.17F
BOWLING GREEN  CLOUDY    73  55  53 CALM      30.17F
GLASGOW        PTSUNNY   74  55  51 SW3       30.17F
$$

KYZ024-025-028>034-038-045-046-053-151800-
NORTH CENTRAL KENTUCKY

CITY           SKY/WX    TMP DP  RH WIND       PRES   REMARKS
LOUISVILLE/SDF CLOUDY    72  55  55 SE5       30.15F
LOUISVILLE/LOU CLOUDY    71  55  56 CALM      30.17F
FORT KNOX      PTSUNNY   71  55  56 VRB2      30.15F
$$

KYZ035>037-039>044-047>052-055>060-089>105-151800-
NORTHEAST KENTUCKY

CITY           SKY/WX    TMP DP  RH WIND       PRES   REMARKS
LEXINGTON      MOSUNNY   75  54  47 CALM      30.17F
COVINGTON      PTSUNNY   69  50  50 CALM      30.17F
FRANKFORT      PTSUNNY   70  54  56 CALM      30.16F
$$

KYZ054-064>069-076>088-106>120-151800-
SOUTHEAST KENTUCKY

CITY           SKY/WX    TMP DP  RH WIND       PRES   REMARKS
JACKSON        CLOUDY    70  59  68 CALM      30.19F
LONDON         CLOUDY    73  60  63 SW6       30.19F
SOMERSET       NOT AVBL
MIDDLESBORO    CLOUDY    75  64  67 CALM      30.18F
MONTICELLO     CLOUDY    75  61  62 CALM      30.20F
$$




USA.gov is the U.S. government's official web portal to all federal, state and local government web resources and services.